Location: Newark
(36.0797°N, 3.9744°E)
Time: 18:06:07
(UTC+00:00)

Vanguard 2 Rocket - All Passes

Search period start: 08 December 2019 00:00
Search period end: 18 December 2019 00:00
Orbit: 554 x 3326 km, 32.9° (Epoch: 08 December)

Date Brightness Start Highest point End Pass type
(mag) Time Alt. Az. Time Alt. Az. Time Alt. Az.
08 Dec - 15:33:16 10° SSW 15:46:27 28° SSE 15:55:36 10° E daylight
08 Dec - 17:48:19 10° SW 18:01:54 52° SSE 18:09:38 10° E visible
08 Dec - 20:06:03 10° W 20:16:08 70° S 20:21:49 10° E visible
08 Dec - 22:22:57 10° W 22:29:10 44° SSW 22:33:20 10° SE night (unlit)
09 Dec - 14:33:14 10° S 14:45:25 22° SSE 14:54:45 10° ESE daylight
09 Dec - 16:46:29 10° SW 17:01:23 45° SSE 17:10:20 10° E visible
09 Dec - 19:04:03 10° WSW 19:16:15 68° S 19:22:57 10° E visible
09 Dec - 21:21:48 10° W 21:29:53 60° SSW 21:34:44 10° ESE visible
09 Dec - 23:38:31 10° WSW 23:42:01 18° SSW 23:44:56 10° S night (unlit)
10 Dec - 13:34:37 10° S 13:44:14 16° SE 13:52:25 10° ESE daylight
10 Dec - 15:44:58 10° SW 16:00:33 39° SSE 16:10:40 10° E daylight
10 Dec - 18:01:47 10° WSW 18:16:03 64° SSE 18:23:58 10° E visible
10 Dec - 20:20:10 10° W 20:30:19 70° S 20:36:01 10° ESE visible
10 Dec - 22:37:19 10° W 22:43:04 31° SSW 22:47:03 10° SE night (unlit)
11 Dec - 12:41:26 10° SE 12:42:57 10° SE 12:44:26 10° SE daylight
11 Dec - 14:44:00 10° SSW 14:59:27 32° SSE 15:10:28 10° E daylight
11 Dec - 16:59:30 10° SW 17:15:30 58° SSE 17:24:46 10° E visible
11 Dec - 19:18:03 10° W 19:30:26 73° S 19:37:12 10° E visible
11 Dec - 21:36:01 10° W 21:43:54 48° SSW 21:48:44 10° SE visible
12 Dec - 13:43:56 10° SSW 13:58:10 25° SE 14:09:27 10° E daylight
12 Dec - 15:57:29 10° SW 16:14:36 51° SSE 16:25:16 10° E daylight
12 Dec - 18:15:35 10° WSW 18:30:13 72° S 18:38:13 10° E visible
12 Dec - 20:34:19 10° W 20:44:26 63° SSW 20:50:09 10° ESE visible
12 Dec - 22:52:03 10° W 22:56:44 21° SW 23:00:16 10° SSE night (unlit)
13 Dec - 12:45:11 10° S 12:56:51 19° SE 13:07:03 10° ESE daylight
13 Dec - 14:55:55 10° SW 15:13:24 43° SSE 15:25:22 10° E daylight
13 Dec - 17:13:01 10° WSW 17:29:37 68° SSE 17:39:03 10° E visible
13 Dec - 19:32:09 10° W 19:44:36 72° S 19:51:23 10° ESE visible
13 Dec - 21:50:21 10° W 21:57:43 35° SSW 22:02:27 10° SE visible
14 Dec - 11:49:37 10° SSE 11:55:32 12° SE 12:01:13 10° ESE daylight
14 Dec - 13:55:04 10° SSW 14:12:00 36° SSE 14:24:54 10° E daylight
14 Dec - 16:10:35 10° WSW 16:28:39 62° SSE 16:39:38 10° E daylight
14 Dec - 18:29:36 10° W 18:44:23 76° S 18:52:27 10° E visible
14 Dec - 20:48:30 10° W 20:58:25 52° SSW 21:04:07 10° SE visible
14 Dec - 23:07:54 10° WSW 23:10:12 12° SW 23:12:12 10° SSW night (unlit)
15 Dec - 12:55:08 10° SSW 13:10:33 28° SE 13:23:35 10° E daylight
15 Dec - 15:08:34 10° SW 15:27:19 55° SSE 15:39:52 10° E daylight
15 Dec - 17:26:50 10° WSW 17:43:45 75° S 17:53:17 10° E visible
15 Dec - 19:46:17 10° W 19:58:42 66° SSW 20:05:30 10° ESE visible
15 Dec - 22:04:58 10° W 22:11:19 24° SW 22:15:41 10° SSE visible
16 Dec - 11:56:30 10° S 12:09:09 21° SE 12:20:54 10° E daylight
16 Dec - 14:07:10 10° SW 14:25:47 47° SSE 14:39:40 10° E daylight
16 Dec - 16:24:08 10° WSW 16:42:42 71° SSE 16:53:54 10° E daylight
16 Dec - 18:43:41 10° W 18:58:32 74° S 19:06:38 10° ESE visible
16 Dec - 21:02:47 10° W 21:12:11 39° SSW 21:17:50 10° SE visible
17 Dec - 11:00:37 10° SSE 11:07:56 13° SE 11:15:11 10° ESE daylight
17 Dec - 13:06:33 10° SSW 13:24:09 39° SSE 13:38:51 10° E daylight
17 Dec - 15:21:46 10° WSW 15:41:17 65° SSE 15:54:11 10° E daylight
17 Dec - 17:40:51 10° W 17:57:54 78° S 18:07:30 10° E visible
17 Dec - 20:00:27 10° W 20:12:37 55° SSW 20:19:27 10° SE visible
17 Dec - 22:20:25 10° WSW 22:24:39 15° SW 22:28:00 10° SSW visible
